User: anonymous   Login
Location: Unspecified
(0.0000°N, 0.0000°E)
Time: 22:20:58
(UTC+00:00)
Language:

NOSS 2-1 (D) - Orbit

View from above orbital plane
View from above orbital plane
View from above satellite
View from above satellite

Ground track
Ground track

The orbit is defined by the following mean orbital elements,

1 20692U          26140.40037444 +.00000000 +00000-0 +35824-3 0 00006
2 20692  63.2944 284.8389 0874585  84.1754 285.8188 13.64427987    08
Epoch (UTC): 20 May 2026 09:36:32
Eccentricity: 0.0874585
inclination: 63.2944°
perigee height: 373 km
apogee height: 1667 km
right ascension of ascending node: 284.8389°
argument of perigee: 84.1754°
revolutions per day: 13.64427987
mean anomaly at epoch: 285.8188°

The dashed part of the orbit path shows where the satellite is in the earth's shadow,  

DLR